DMSP 5D-2 F13 DEB, 40437

Orbit data source: Space-Track

DMSP 5D-2 F13 DEB, 40437 is space debris in SSO originally from a launch on Fri, 24 Mar 1995 UTC launched from the Air Force Western Test Range (AFWTR). Debris objects in space refer to the collection of defunct objects orbiting the Earth. Examples of debris include non-operational satellites, rocket bodies, and fragments generated from explosions, collisions, or faulty payload assembly.

Loading next visibility...
Identifier
40437, 1995-015AP
Orbit
SSO
Country
Flag of USUS
Related business
Manufacturer
Unknown
Mission
Spacecraft
Bus & Motor
Unknown
Mass
Unknown
Launch date (UTC)
1995-03-24 (30 years ago)
Launch vehicle
Unknown
Launch site
Air Force Western Test Range (AFWTR)
Object type
Payload
Rocket body
Debris
Shape & HBR
Unknown
Radar Cross Section
Small (<0.1 m²)

Expand to show TLE details & history
Last TLE update: 1 day ago

TLE from 1 day ago
0 DMSP 5D-2 F13 DEB
1 40437U 95015AP  25259.70391019  .00016361  00000-0  32640-2 0  9995
2 40437  98.6731 317.5468 0019217 204.3060 155.7235 14.61914741549894
Epoch: 2025-09-16T16:53Z
TLE epoch observation values (Epoch: 2025-09-16T16:53:37.84Z)
Latitude
-0.00002°
Longitude
68.24874°
Altitude
702.354 km
Speed
7.498 km/s
True Right ascension
21h 10m 11s
True Declination
0° 00' 00"
Sunlit
Object was in full shadow at epoch
Visualization orbit readout
Latitude
Unknown
Longitude
Unknown
Altitude
Unknown
Speed
Unknown
Apparent Right ascension
Unknown
Apparent Declination
Unknown
Sunlit
N/A
Visualization observer readout
Local Sidereal Time
14:08:27
Azimuth
Unknown
Elevation
Unknown
Doppler factor
Unknown
Orbital elements
Apogee altitude
697.671 km
Perigee altitude
670.528 km
Semi-major axis
7,062.236 km
Eccentricity
0.00192
Inclination
98.6731°
RAAN
317.5468°
Arg. of periapsis
204.306°
True anomaly
155.81384°
Mean anomaly
155.7235°
Eccentric anomaly
155.76869°
Mean motion
3.65704 °/min
Orbital period
98.44 mins
BSTAR
0.003264
Loading maneuver chart data...
Computing Atmospheric mass density...

Documentation

Showing up to 5 results
|